Tracking 29892 objects as of 21-Nov-2024
HD Live streaming from Space Station
objects crossing your sky now

SL-3 R/B

Track SL-3 R/B now!
10-day predictions


NORAD ID: 10515
Int'l Code: 1977-117B
Perigee: 849.1 km
Apogee: 890.9 km
Inclination: 81.2 °
Period: 102.2 minutes
Semi major axis: 7241 km
RCS: 6.0287 m2 (large)
Launch date: December 14, 1977
Source: Commonwealth of Independent States (former USSR) (CIS)
Launch site: PLESETSK MISSILE AND SPACE COMPLEX (PKMTR)

Note: This is a ROCKET BODY
Your satellite tracking list
Your tracking list is empty




NASA's NSSDC Master Catalog

Two Line Element Set (TLE):
1 10515U 77117B   24325.60723731  .00000071  00000-0  33232-4 0  9995
2 10515  81.2419 162.7539 0028818 132.7638 227.5964 14.08977408411581
Source of the keplerian elements: AFSPC